TimeCDT,TemperatureF,Dew PointF,Humidity,Sea Level PressureIn,VisibilityMPH,Wind Direction,Wind SpeedMPH,Gust SpeedMPH,PrecipitationIn,Events,Conditions,WindDirDegrees,DateUTC
12:15 AM,68.7,59.9,73,30.00,10.0,NNE,4.6,-,N/A,,Clear,30,2013-06-18 05:15:00
12:35 AM,69.8,60.3,72,30.01,10.0,NNE,4.6,-,N/A,,Clear,30,2013-06-18 05:35:00
12:55 AM,69.3,60.1,72,30.01,10.0,NNE,4.6,-,N/A,,Clear,30,2013-06-18 05:55:00
1:15 AM,69.8,59.2,69,30.02,10.0,NNE,6.9,-,N/A,,Clear,20,2013-06-18 06:15:00
1:35 AM,69.3,58.5,68,30.01,10.0,NNE,5.8,-,N/A,,Scattered Clouds,20,2013-06-18 06:35:00
1:55 AM,68.5,58.1,69,30.01,10.0,NE,5.8,-,N/A,,Scattered Clouds,40,2013-06-18 06:55:00
2:15 AM,68.4,56.8,67,30.01,10.0,NE,5.8,-,N/A,,Scattered Clouds,40,2013-06-18 07:15:00
2:35 AM,68.4,55.8,64,30.01,10.0,NNE,4.6,-,N/A,,Clear,30,2013-06-18 07:35:00
2:55 AM,67.1,56.1,68,30.02,10.0,NE,3.5,-,N/A,,Mostly Cloudy,40,2013-06-18 07:55:00
3:15 AM,67.8,55.9,66,30.01,10.0,Calm,Calm,-,N/A,,Mostly Cloudy,0,2013-06-18 08:15:00
3:35 AM,66.4,56.3,70,30.02,10.0,SW,3.5,-,N/A,,Mostly Cloudy,220,2013-06-18 08:35:00
3:55 AM,66.4,55.8,69,30.02,10.0,Calm,Calm,-,N/A,,Scattered Clouds,0,2013-06-18 08:55:00
4:15 AM,66.2,55.9,69,30.03,10.0,WSW,5.8,-,N/A,,Scattered Clouds,240,2013-06-18 09:15:00
4:35 AM,66.2,56.5,71,30.03,10.0,WNW,3.5,-,N/A,,Scattered Clouds,300,2013-06-18 09:35:00
4:55 AM,65.7,56.8,73,30.03,10.0,North,4.6,-,N/A,,Mostly Cloudy,350,2013-06-18 09:55:00
5:15 AM,67.6,55.0,64,30.03,10.0,Calm,Calm,-,N/A,,Scattered Clouds,0,2013-06-18 10:15:00
5:35 AM,66.9,55.6,67,30.03,10.0,Calm,Calm,-,N/A,,Clear,0,2013-06-18 10:35:00
5:55 AM,65.5,57.4,75,30.03,10.0,Calm,Calm,-,N/A,,Clear,0,2013-06-18 10:55:00
6:15 AM,64.6,57.6,78,30.02,10.0,North,3.5,-,N/A,,Clear,360,2013-06-18 11:15:00
6:35 AM,64.0,58.3,82,30.02,10.0,North,3.5,-,N/A,,Clear,10,2013-06-18 11:35:00
6:55 AM,66.2,58.5,76,30.03,10.0,NNW,4.6,-,N/A,,Clear,330,2013-06-18 11:55:00
7:15 AM,67.6,58.3,72,30.04,10.0,Calm,Calm,-,N/A,,Clear,0,2013-06-18 12:15:00
7:35 AM,67.3,57.9,72,30.06,10.0,North,6.9,-,N/A,,Scattered Clouds,360,2013-06-18 12:35:00
7:55 AM,67.3,58.6,74,30.07,10.0,NNE,4.6,-,N/A,,Mostly Cloudy,20,2013-06-18 12:55:00
8:15 AM,67.1,60.1,78,30.07,7.0,NE,4.6,-,0.01,Rain,Rain,40,2013-06-18 13:15:00
8:35 AM,69.1,60.8,75,30.06,10.0,Calm,Calm,-,0.01,,Scattered Clouds,0,2013-06-18 13:35:00
8:55 AM,70.3,59.5,69,30.06,10.0,ENE,4.6,-,0.01,,Clear,70,2013-06-18 13:55:00
9:15 AM,72.1,59.4,64,30.08,10.0,NE,6.9,-,N/A,,Clear,50,2013-06-18 14:15:00
9:35 AM,71.6,58.8,64,30.08,10.0,NE,6.9,-,N/A,,Mostly Cloudy,40,2013-06-18 14:35:00
9:55 AM,73.0,59.4,62,30.08,10.0,ENE,6.9,-,N/A,,Scattered Clouds,70,2013-06-18 14:55:00
10:15 AM,73.8,59.0,60,30.08,10.0,NNE,10.4,-,N/A,,Scattered Clouds,30,2013-06-18 15:15:00
10:35 AM,73.4,58.1,59,30.08,10.0,NE,9.2,-,N/A,,Mostly Cloudy,40,2013-06-18 15:35:00
10:55 AM,74.7,57.9,56,30.07,10.0,ENE,9.2,-,N/A,,Mostly Cloudy,60,2013-06-18 15:55:00
11:15 AM,75.0,57.7,55,30.07,10.0,East,8.1,-,N/A,,Scattered Clouds,90,2013-06-18 16:15:00
11:35 AM,74.1,57.6,56,30.07,10.0,Calm,Calm,-,N/A,Thunderstorm,Thunderstorm,0,2013-06-18 16:35:00
11:55 AM,73.8,57.2,56,30.09,10.0,Calm,Calm,-,N/A,Thunderstorm,Mostly Cloudy,0,2013-06-18 16:55:00
12:15 PM,74.3,57.2,55,30.08,10.0,NNE,3.5,-,N/A,Rain-Thunderstorm,Light Thunderstorms and Rain,30,2013-06-18 17:15:00
12:35 PM,76.3,57.0,51,30.08,10.0,Calm,Calm,-,N/A,Thunderstorm,Scattered Clouds,0,2013-06-18 17:35:00
12:55 PM,77.5,56.7,48,30.07,10.0,NNE,4.6,-,N/A,,Clear,20,2013-06-18 17:55:00
1:15 PM,76.5,57.2,51,30.06,10.0,ENE,4.6,-,N/A,,Mostly Cloudy,60,2013-06-18 18:15:00
1:35 PM,77.9,56.5,48,30.07,10.0,NNE,3.5,-,N/A,,Mostly Cloudy,20,2013-06-18 18:35:00
1:55 PM,77.7,55.8,47,30.06,10.0,Calm,Calm,-,N/A,,Mostly Cloudy,0,2013-06-18 18:55:00
2:15 PM,78.8,56.1,46,30.05,10.0,Calm,Calm,-,N/A,,Mostly Cloudy,0,2013-06-18 19:15:00
2:35 PM,80.2,55.9,43,30.05,10.0,Calm,Calm,-,N/A,,Mostly Cloudy,0,2013-06-18 19:35:00
2:55 PM,79.9,55.8,43,30.04,10.0,NW,3.5,-,N/A,,Scattered Clouds,320,2013-06-18 19:55:00
3:15 PM,79.9,55.6,43,30.04,10.0,NNE,3.5,-,N/A,,Clear,30,2013-06-18 20:15:00
3:35 PM,81.0,56.1,42,30.04,10.0,Calm,Calm,-,N/A,,Clear,0,2013-06-18 20:35:00
3:55 PM,81.5,54.7,40,30.03,10.0,North,3.5,-,N/A,,Scattered Clouds,10,2013-06-18 20:55:00
4:15 PM,81.9,56.1,41,30.02,10.0,NNE,5.8,-,N/A,,Clear,30,2013-06-18 21:15:00
4:35 PM,81.3,53.2,38,30.01,10.0,NNE,4.6,-,N/A,,Clear,30,2013-06-18 21:35:00
4:55 PM,81.9,54.1,38,30.01,10.0,Calm,Calm,-,N/A,,Clear,0,2013-06-18 21:55:00
5:15 PM,81.9,55.4,40,30.00,10.0,NE,3.5,-,N/A,,Clear,40,2013-06-18 22:15:00
5:35 PM,82.2,53.2,37,30.00,10.0,Calm,Calm,-,N/A,,Clear,0,2013-06-18 22:35:00
5:55 PM,81.7,51.8,35,29.99,10.0,Calm,Calm,-,N/A,,Clear,0,2013-06-18 22:55:00
6:15 PM,81.7,52.2,36,29.99,10.0,Calm,Calm,-,N/A,,Clear,0,2013-06-18 23:15:00
6:35 PM,81.7,53.4,38,29.99,10.0,ENE,3.5,-,N/A,,Clear,70,2013-06-18 23:35:00
6:55 PM,81.5,55.4,41,29.99,10.0,Calm,Calm,-,N/A,,Clear,0,2013-06-18 23:55:00
7:15 PM,80.6,56.8,44,29.99,10.0,ESE,4.6,-,N/A,,Clear,120,2013-06-19 00:15:00
7:35 PM,79.9,56.1,44,29.99,10.0,ESE,3.5,-,N/A,,Clear,120,2013-06-19 00:35:00
7:55 PM,78.8,58.1,49,29.99,10.0,SSE,4.6,-,N/A,,Scattered Clouds,150,2013-06-19 00:55:00
8:15 PM,77.2,57.9,51,30.00,10.0,South,4.6,-,N/A,,Scattered Clouds,170,2013-06-19 01:15:00
8:35 PM,76.3,58.3,54,29.99,10.0,SSE,3.5,-,N/A,,Mostly Cloudy,160,2013-06-19 01:35:00
8:55 PM,75.4,57.6,54,29.99,10.0,Calm,Calm,-,N/A,,Scattered Clouds,0,2013-06-19 01:55:00
9:15 PM,73.4,58.1,59,29.99,10.0,South,3.5,-,N/A,,Clear,170,2013-06-19 02:15:00
9:35 PM,72.0,57.6,60,29.99,10.0,South,5.8,-,N/A,,Clear,180,2013-06-19 02:35:00
9:55 PM,69.4,57.7,66,30.00,10.0,South,5.8,-,N/A,,Clear,190,2013-06-19 02:55:00
10:15 PM,69.4,59.0,69,30.01,10.0,SSW,5.8,-,N/A,,Clear,210,2013-06-19 03:15:00
10:35 PM,69.8,60.1,71,30.00,10.0,SSW,4.6,-,N/A,,Clear,210,2013-06-19 03:35:00
10:55 PM,69.4,60.8,74,30.01,10.0,SSW,5.8,-,N/A,,Clear,210,2013-06-19 03:55:00
11:15 PM,68.5,60.8,76,30.00,10.0,SSW,4.6,-,N/A,,Clear,200,2013-06-19 04:15:00
11:35 PM,68.4,60.8,77,30.00,10.0,SSW,4.6,-,N/A,,Clear,200,2013-06-19 04:35:00
11:55 PM,68.5,61.0,77,30.00,10.0,SSW,5.8,-,N/A,,Clear,200,2013-06-19 04:55:00